#timestamp,LO_Frequency,Hit,StdDev 
1552014015.7,286047002.6,N
1552014035.5,286047002.1,N
1552014055.4,286047002.6,N
1552014075.2,286047001.6,N
1552014095.0,286047002.8,N
1552014095.9,286047002.8,N
1552014115.8,286046999.9,N
1552014135.6,286046999.9,N
1552014155.4,286047001.6,N
1552014175.3,286047002.9,N
1552014195.1,286047004.4,N
1552014215.9,286047004.4,N
1552014235.7,286047003.6,N
1552014255.5,286047004.5,N
1552014275.4,286047004.5,N
1552014295.2,286047002.1,N
1552014315.0,286047000.6,N
1552014315.9,286047000.6,N
1552014335.8,286047000.5,N
1552014355.6,286047001.7,N
1552014375.5,286047004.1,N
1552014395.3,286047004.1,N
1552014415.2,286047003.5,N
1552014435.9,286047004.2,N
1552014455.7,286047005.6,N
1552014475.6,286047003.6,N
1552014495.4,286047002.3,N
1552014515.2,286047001.6,N
1552014535.3,286047002.2,N
1552014555.2,286047002.1,N
1552014575.9,286047001.0,N
1552014595.7,286047000.7,N
1552014615.6,286046996.7,N
1552014635.4,286046996.5,N
1552014655.2,286047000.0,N
1552014675.1,286047002.0,N
1552014676.0,286047002.0,N
1552014695.8,286046999.9,N
1552014715.7,286046999.9,N
1552014735.5,286046998.5,N
1552014755.3,286046998.5,N
1552014775.2,286047000.0,N
1552014795.0,286047002.2,N
1552014795.9,286047002.2,N
1552014815.7,286047002.0,N
1552014835.6,286047000.8,N
1552014855.4,286046998.2,N
1552014875.3,286046999.7,N
1552014895.1,286047002.7,N
1552014896.0,286047002.7,N
1552014915.8,286047001.5,N
1552014935.7,286047001.4,N
1552014955.5,286047001.7,N
1552014975.3,286047004.0,N
1552014995.2,286047001.4,N
1552015015.0,286047002.8,N
1552015015.9,286047002.8,N
1552015035.8,286046998.2,N
1552015055.6,286046998.6,N
1552015075.4,286047000.2,N
1552015095.3,286047001.7,N
1552015115.1,286047004.2,N
1552015135.9,286047001.3,N
1552015155.7,286047003.2,N
1552015175.5,286047005.9,Y
1552015195.4,286047001.9,P
1552015215.2,286047002.7,P
1552015235.0,286047001.2,N
1552015235.9,286047001.2,N
1552015255.8,286047000.5,N
1552015275.6,286046998.4,N
1552015295.5,286046998.5,N
1552015315.3,286046998.4,N
1552015335.1,286046997.1,N
1552015355.9,286046996.5,N
1552015375.7,286047001.0,N
1552015395.6,286047004.3,N
1552015415.4,286047001.5,N
1552015435.2,286047001.8,N
1552015455.1,286047004.4,N
1552015456.0,286047004.4,N
1552015475.8,286047001.8,N
1552015495.7,286047005.1,N
1552015515.5,286047004.0,N
1552015535.3,286047002.3,N
1552015555.2,286047000.9,N
1552015575.0,286047002.8,N
1552015575.9,286047002.8,N
1552015595.7,286047002.2,N
1552015615.6,286046999.7,N
1552015635.4,286047000.2,N
1552015655.3,286047001.9,N
1552015675.1,286047002.1,N
1552015695.8,286047001.9,N
1552015715.7,286046999.7,N
1552015735.5,286047001.5,N
1552015755.4,286047002.3,N
1552015775.2,286047002.0,N
1552015795.0,286047001.7,N
1552015795.9,286047001.7,N
1552015815.8,286047002.3,N
1552015835.6,286047002.8,N
1552015855.5,286047000.8,N
1552015875.3,286046999.9,N
1552015895.1,286046999.8,N
1552015915.9,286047000.0,N
1552015935.7,286047002.5,N
1552015955.6,286046999.7,N
1552015975.4,286046999.8,N
1552015995.2,286047000.0,N
1552016015.1,286047002.3,N
1552016016.0,286047002.3,N
1552016035.8,286047000.7,N
1552016055.6,286047001.0,N
1552016075.5,286046998.8,N
1552016095.3,286046998.4,N
1552016115.2,286046998.6,N
1552016135.9,286047000.9,N
1552016155.8,286046999.9,N
1552016175.6,286047003.5,N
1552016195.4,286047001.5,N
1552016215.3,286047002.0,N
1552016235.1,286047001.7,N
1552016255.8,286047000.7,N
1552016275.7,286046998.6,N
1552016295.5,286046998.9,N
1552016315.4,286046998.7,N
1552016335.2,286046999.1,N
1552016355.0,286046998.5,N
1552016355.9,286046998.5,N
1552016375.8,286046996.7,N
1552016395.6,286046998.8,N
1552016415.4,286047000.2,N
1552016435.3,286047001.5,N
1552016455.1,286047004.0,N
1552016475.9,286047005.4,Y
1552016495.7,286047003.0,P
1552016515.5,286047005.3,P
1552016535.4,286047003.5,N
1552016555.2,286047002.1,N
1552016575.0,286046999.8,N
1552016576.0,286046999.8,N
1552016595.8,286047002.6,N
1552016615.6,286047002.6,N
1552016635.5,286047003.6,N
1552016655.3,286046999.8,N
1552016675.1,286047000.9,N
1552016695.9,286046998.5,N
1552016715.7,286046998.7,N
1552016735.6,286047002.4,N
1552016755.4,286047002.9,N
1552016775.2,286047001.8,N
1552016795.1,286047002.8,N
1552016796.0,286047002.8,N
1552016815.8,286046999.8,N
1552016835.7,286047000.5,N
1552016855.5,286047005.5,Y
1552016875.3,286047000.2,P
1552016895.2,286047000.5,N
1552016915.0,286046998.1,P
1552016915.9,286046998.1,N
1552016935.7,286047001.1,N
1552016955.6,286047000.5,N
1552016975.4,286047000.6,N
1552016995.3,286047002.3,N
1552017015.1,286047000.1,N
1552017035.8,286047000.6,N
1552017055.7,286046999.8,N
1552017075.5,286046999.9,N
1552017095.4,286046999.9,N
1552017115.2,286047000.3,N
1552017135.0,286047001.2,N
1552017135.9,286047001.2,N
1552017155.8,286047000.6,N
1552017175.6,286047000.6,N
1552017195.5,286047000.5,N
1552017215.3,286047000.5,N
1552017235.1,286047000.8,N
1552017255.9,286047000.4,N
1552017275.7,286047000.9,N
1552017295.5,286046998.3,N
1552017315.4,286047000.0,N
1552017335.2,286047001.1,N
1552017355.1,286046996.5,Y
1552017356.0,286046996.5,P
1552017375.8,286046996.6,N
1552017395.6,286046996.5,N
1552017415.5,286046999.1,N
1552017435.3,286046997.0,N
1552017455.2,286046997.8,N
1552017475.9,286046995.8,Y
1552017495.7,286046999.4,P
1552017515.6,286046996.5,P
1552017535.4,286046999.5,N
1552017555.2,286046998.7,N
1552017575.1,286046998.4,N
1552017576.0,286046998.4,N
1552017595.8,286047001.0,N
